When you browse on this site, cookies collect data to enhance your experience and personalize the content and advertising you see.
Visit our Privacy Policy to learn more. By continuing to use the site, you agree to this use of cookies and data.
  • In Italy
  • List of Countries
  • For 7 days
  • Water Temperature
  • Satellite Maps
  • Weather Map
  • Weather Widgets
  • user-avatar
    Login

    Hourly Weather Ndjbele

    Today, 11 December, Tuesday

    Time Temperature Precipitation Wind Pressure Humidity
    00:00 +19°C° 0 mm 0 mps 717 mmHg 58%
    01:00 +19°C° 0 mm 0 mps 717 mmHg 60%
    02:00 +18°C° 0 mm 0 mps 716 mmHg 62%
    03:00 +18°C° 0 mm 0 mps 716 mmHg 64%
    04:00 +18°C° 0 mm 0 mps 716 mmHg 66%
    05:00 +17°C° 0 mm 0 mps 716 mmHg 67%
    06:00 +19°C° 0 mm 0 mps 717 mmHg 62%
    07:00 +22°C° 0 mm 0 mps 717 mmHg 57%
    08:00 +24°C° 0 mm 0 mps 718 mmHg 52%
    09:00 +27°C° 0 mm 0 mps 718 mmHg 43%
    10:00 +30°C° 0 mm 0 mps 718 mmHg 34%
    11:00 +33°C° 0 mm 0 mps 718 mmHg 28%
    12:00 +33°C° 0 mm 0 mps 717 mmHg 26%
    13:00 +33°C° 0 mm 0 mps 717 mmHg 24%
    14:00 +34°C° 0 mm 0 mps 716 mmHg 22%
    15:00 +31°C° 0 mm 0 mps 716 mmHg 28%
    16:00 +31°C° 0 mm 1 mps 716 mmHg 34%
    17:00 +28°C° 0 mm 1 mps 715 mmHg 40%
    18:00 +25°C° 0 mm 0 mps 716 mmHg 43%
    19:00 +23°C° 0 mm 0 mps 716 mmHg 46%
    20:00 +22°C° 0 mm 0 mps 716 mmHg 49%
    21:00 +21°C° 0 mm 0 mps 716 mmHg 51%
    22:00 +21°C° 0 mm 0 mps 716 mmHg 53%
    23:00 +20°C° 0 mm 0 mps 716 mmHg 56%

    Tomorrow, 12 December, Wednesday

    Time Temperature Precipitation Wind Pressure Humidity
    00:00 +20°C° 0 mm 0 mps 716 mmHg 60%
    01:00 +19°C° 0 mm 0 mps 716 mmHg 65%
    02:00 +19°C° 0 mm 0 mps 716 mmHg 70%
    03:00 +19°C° 0 mm 0 mps 716 mmHg 75%
    04:00 +18°C° 0 mm 0 mps 716 mmHg 80%
    05:00 +18°C° 0 mm 0 mps 716 mmHg 84%
    06:00 +20°C° 0 mm 0 mps 717 mmHg 80%
    07:00 +22°C° 0 mm 0 mps 717 mmHg 75%
    08:00 +26°C° 0 mm 1 mps 718 mmHg 71%
    09:00 +29°C° 0 mm 1 mps 718 mmHg 61%
    10:00 +31°C° 0 mm 1 mps 718 mmHg 52%
    11:00 +33°C° 0 mm 1 mps 718 mmHg 43%
    12:00 +33°C° 0 mm 1 mps 717 mmHg 42%
    13:00 +33°C° 0 mm 1 mps 716 mmHg 42%
    14:00 +33°C° 0 mm 1 mps 716 mmHg 42%
    15:00 +31°C° 0 mm 1 mps 716 mmHg 47%
    16:00 +30°C° 0 mm 1 mps 715 mmHg 52%
    17:00 +29°C° 0 mm 1 mps 715 mmHg 58%
    18:00 +27°C° 0.1 mm 1 mps 716 mmHg 64%
    19:00 +26°C° 0.1 mm 1 mps 716 mmHg 71%
    20:00 +24°C° 0.1 mm 1 mps 717 mmHg 78%
    21:00 +23°C° 0.1 mm 1 mps 717 mmHg 83%
    22:00 +21°C° 0.1 mm 0 mps 717 mmHg 88%
    23:00 +20°C° 0.1 mm 0 mps 717 mmHg 93%

    Day after tomorrow, 13 December, Thursday

    Time Temperature Precipitation Wind Pressure Humidity
    00:00 +20°C° 0.2 mm 0 mps 717 mmHg 94%
    01:00 +20°C° 0.2 mm 0 mps 716 mmHg 96%
    02:00 +20°C° 0.2 mm 0 mps 716 mmHg 97%
    03:00 +19°C° 0 mm 0 mps 716 mmHg 97%
    04:00 +19°C° 0 mm 0 mps 716 mmHg 98%
    05:00 +19°C° 0 mm 0 mps 716 mmHg 98%
    06:00 +21°C° 0 mm 0 mps 717 mmHg 92%
    07:00 +22°C° 0 mm 0 mps 717 mmHg 86%
    08:00 +24°C° 0 mm 0 mps 718 mmHg 80%
    09:00 +26°C° 0.2 mm 0 mps 718 mmHg 71%
    10:00 +28°C° 0.2 mm 0 mps 718 mmHg 62%
    11:00 +30°C° 0.2 mm 0 mps 718 mmHg 52%
    12:00 +30°C° 0.3 mm 0 mps 717 mmHg 50%
    13:00 +32°C° 0.3 mm 1 mps 716 mmHg 48%
    14:00 +32°C° 0.3 mm 1 mps 716 mmHg 46%
    15:00 +29°C° 0 mm 0 mps 716 mmHg 50%
    16:00 +28°C° 0 mm 0 mps 716 mmHg 55%
    17:00 +27°C° 0 mm 0 mps 716 mmHg 60%
    18:00 +25°C° 0.2 mm 0 mps 716 mmHg 65%
    19:00 +24°C° 0.2 mm 0 mps 716 mmHg 70%
    20:00 +23°C° 0.2 mm 0 mps 717 mmHg 76%
    21:00 +22°C° 0.2 mm 0 mps 717 mmHg 79%
    22:00 +22°C° 0.2 mm 0 mps 717 mmHg 83%
    23:00 +21°C° 0.2 mm 0 mps 717 mmHg 86%

    14 December, Friday

    Time Temperature Precipitation Wind Pressure Humidity
    00:00 +21°C° 0 mm 0 mps 717 mmHg 89%
    01:00 +20°C° 0 mm 0 mps 716 mmHg 92%
    02:00 +20°C° 0 mm 0 mps 716 mmHg 95%
    03:00 +20°C° 0.3 mm 0 mps 716 mmHg 96%
    04:00 +20°C° 0.3 mm 0 mps 716 mmHg 97%
    05:00 +19°C° 0.3 mm 0 mps 716 mmHg 98%
    06:00 +21°C° 0.1 mm 0 mps 717 mmHg 92%
    07:00 +22°C° 0.1 mm 0 mps 718 mmHg 87%
    08:00 +24°C° 0.1 mm 0 mps 718 mmHg 81%
    09:00 +26°C° 0.2 mm 0 mps 718 mmHg 69%
    10:00 +31°C° 0.2 mm 1 mps 718 mmHg 56%
    11:00 +33°C° 0.2 mm 1 mps 718 mmHg 44%
    12:00 +33°C° 0 mm 1 mps 717 mmHg 40%
    13:00 +34°C° 0 mm 1 mps 717 mmHg 35%
    14:00 +34°C° 0 mm 1 mps 716 mmHg 31%
    15:00 +33°C° 0 mm 1 mps 716 mmHg 35%
    16:00 +31°C° 0 mm 1 mps 716 mmHg 38%
    17:00 +29°C° 0 mm 1 mps 715 mmHg 42%
    18:00 +27°C° 0 mm 1 mps 716 mmHg 43%
    19:00 +24°C° 0 mm 0 mps 716 mmHg 45%
    20:00 +22°C° 0 mm 0 mps 717 mmHg 47%
    21:00 +21°C° 0 mm 0 mps 717 mmHg 48%
    22:00 +21°C° 0 mm 0 mps 717 mmHg 50%
    23:00 +20°C° 0 mm 0 mps 717 mmHg 52%

    15 December, Saturday

    Time Temperature Precipitation Wind Pressure Humidity
    00:00 +19°C° 0 mm 0 mps 717 mmHg 58%
    01:00 +19°C° 0 mm 0 mps 716 mmHg 63%
    02:00 +18°C° 0 mm 0 mps 716 mmHg 68%
    03:00 +18°C° 0 mm 0 mps 716 mmHg 71%
    04:00 +18°C° 0 mm 0 mps 716 mmHg 74%
    05:00 +18°C° 0 mm 0 mps 717 mmHg 76%
    06:00 +20°C° 0 mm 0 mps 717 mmHg 71%
    07:00 +22°C° 0 mm 0 mps 718 mmHg 66%
    08:00 +24°C° 0 mm 0 mps 719 mmHg 62%
    09:00 +28°C° 0 mm 1 mps 719 mmHg 49%
    10:00 +30°C° 0 mm 1 mps 719 mmHg 37%
    11:00 +34°C° 0 mm 2 mps 718 mmHg 24%
    12:00 +35°C° 0 mm 2 mps 718 mmHg 22%
    13:00 +35°C° 0 mm 1 mps 717 mmHg 19%
    14:00 +36°C° 0 mm 1 mps 716 mmHg 16%
    15:00 +33°C° 0 mm 1 mps 716 mmHg 21%
    16:00 +31°C° 0 mm 1 mps 716 mmHg 27%
    17:00 +27°C° 0 mm 0 mps 716 mmHg 33%
    18:00 +25°C° 0 mm 0 mps 716 mmHg 35%
    19:00 +23°C° 0 mm 0 mps 716 mmHg 37%
    20:00 +22°C° 0 mm 0 mps 717 mmHg 39%
    21:00 +21°C° 0 mm 0 mps 717 mmHg 40%
    22:00 +20°C° 0 mm 0 mps 717 mmHg 42%
    23:00 +20°C° 0 mm 0 mps 717 mmHg 43%

    16 December, Sunday

    Time Temperature Precipitation Wind Pressure Humidity
    00:00 +19°C° 0 mm 0 mps 716 mmHg 47%
    01:00 +19°C° 0 mm 0 mps 716 mmHg 50%
    02:00 +18°C° 0 mm 0 mps 716 mmHg 54%
    03:00 +18°C° 0 mm 0 mps 716 mmHg 57%
    04:00 +17°C° 0 mm 0 mps 716 mmHg 60%
    05:00 +17°C° 0 mm 0 mps 716 mmHg 62%
    06:00 +19°C° 0 mm 0 mps 717 mmHg 59%
    07:00 +21°C° 0 mm 0 mps 718 mmHg 55%
    08:00 +23°C° 0 mm 0 mps 718 mmHg 51%
    09:00 +26°C° 0 mm 0 mps 718 mmHg 42%
    10:00 +30°C° 0 mm 1 mps 718 mmHg 32%
    11:00 +33°C° 0 mm 1 mps 718 mmHg 22%
    12:00 +34°C° 0 mm 1 mps 717 mmHg 20%
    13:00 +34°C° 0 mm 1 mps 717 mmHg 18%
    14:00 +35°C° 0 mm 1 mps 716 mmHg 16%
    15:00 +33°C° 0 mm 1 mps 716 mmHg 22%
    16:00 +30°C° 0 mm 1 mps 716 mmHg 27%
    17:00 +28°C° 0 mm 1 mps 716 mmHg 33%
    18:00 +24°C° 0 mm 0 mps 716 mmHg 35%
    19:00 +23°C° 0 mm 0 mps 717 mmHg 38%
    20:00 +21°C° 0 mm 0 mps 717 mmHg 40%
    21:00 +20°C° 0 mm 0 mps 717 mmHg 41%
    22:00 +20°C° 0 mm 0 mps 717 mmHg 42%
    23:00 +19°C° 0 mm 0 mps 717 mmHg 44%
    Show more